{"data":{"norad_id":64851,"intl_designator":"2025-152K","name":"STARLINK-34722","alt_names":[],"object_type":"PAYLOAD","status":"ACTIVE","operator":null,"country":"US","launch_date":"2025-07-19","launch_site_code":"AFWTR","launch_vehicle":null,"mission":null,"orbit_class":"UNKNOWN","rcs_meters":null,"size_class":null,"mass_kg":null,"dimensions":null,"purposes":["comms"],"wikipedia_slug":null,"has_3d_model":false,"image_url":null,"decayed_at":null,"tle_current":{"epoch":"2026-05-25T02:36:24.501024Z","epoch_age_seconds":66009,"freshness":"FRESH","line1":"1 64851U 25152K   26145.10861691  .00002951  00000+0  20850-3 0  9993","line2":"2 64851  97.4516   0.4122 0002525  81.5561 278.5953 15.05650531 46917","mean_motion":15.05650531,"eccentricity":0.0002525,"inclination_deg":97.4516,"raan_deg":0.4122,"arg_perigee_deg":81.5561,"mean_anomaly_deg":278.5953,"bstar":0.0002085,"rev_number":4691,"period_min":95.639723186203,"perigee_km":547.76029450211,"apogee_km":551.25875599736,"semimajor_km":6927.6465252497,"source":"CELESTRAK","updated_at":"2026-05-25T13:38:20.613667Z"}}}